Oxford, CT

12:38 AM EDT on August 22, 2017 (GMT -0400)
Waterbury-Oxford

Weather History for KOXC - February, 2014

Change the Weather History Date:

Friday, February 28, 2014

  Actual Average Record
Temperature  
Mean Temperature 10 °F -  
Max Temperature 17 °F 38 °F 57 °F (2017)
Min Temperature 3 °F 23 °F 1 °F (2015)
Degree Days  
Heating Degree Days 55    
Moisture  
Dew Point -12 °F    
Average Humidity 37    
Maximum Humidity 43    
Minimum Humidity 32    
Precipitation  
Precipitation 0.00 in - - ()
Sea Level Pressure  
Sea Level Pressure 30.18 in    
Wind  
Wind Speed 7 mph (WNW)    
Max Wind Speed 13 mph    
Max Gust Speed 18 mph    
Visibility 10 miles    
Events      
Averages and records for this station are not official NWS values.
T = Trace of Precipitation, MM = Missing Value Source: NWS Daily Summary

Daily Weather History Graph

Daily Weather History Graph

Search for Another Location

Airport or City:

Trip Planner

Search our weather history database for the weather conditions in past years. The results will help you decide how hot, cold, wet, or windy it might be!

Date:

Astronomy

Feb. 28, 2014 Rise Set
Actual Time 6:28 AM EST 5:42 PM EST
Civil Twilight 6:00 AM EST 6:09 PM EST
Nautical Twilight 5:28 AM EST 6:41 PM EST
Astronomical Twilight 4:56 AM EST 7:14 PM EST
Moon 5:41 AM EST (2/28) 5:15 PM EST (2/28)
Length of Visible Light 12h 08m
Length of Day
11h 13m
Waning Crescent, 1% of the Moon is Illuminated
Feb 28
Waning Crescent
Mar 1
New
Mar 8
First Quarter
Mar 16
Full
Mar 23
Last Quarter

Hourly Weather History & Observations

Time (EST) Temp. Windchill Dew Point Humidity Pressure Visibility Wind Dir Wind Speed Gust Speed Precip Events Conditions
12:15 AM 8.6 °F -6.3 °F -14.8 °F 34% 29.99 in 10.0 mi WNW 11.5 mph 18.4 mph N/A   Clear
12:35 AM 8.6 °F -1.3 °F -14.8 °F 34% 30.00 in 10.0 mi WNW 5.8 mph 17.3 mph N/A   Clear
12:55 AM 8.6 °F -3.7 °F -14.8 °F 34% 30.02 in 10.0 mi WNW 8.1 mph - N/A   Clear
1:15 AM 8.6 °F -4.7 °F -14.8 °F 34% 30.03 in 10.0 mi West 9.2 mph - N/A   Clear
1:35 AM 8.6 °F -3.7 °F -14.8 °F 34% 30.05 in 10.0 mi West 8.1 mph - N/A   Clear
1:55 AM 6.8 °F -4.8 °F -14.8 °F 37% 30.05 in 10.0 mi West 6.9 mph - N/A   Clear
2:15 AM 6.8 °F -3.5 °F -14.8 °F 37% 30.06 in 10.0 mi West 5.8 mph - N/A   Clear
2:35 AM 6.8 °F -3.5 °F -14.8 °F 37% 30.06 in 10.0 mi West 5.8 mph - N/A   Clear
2:55 AM 6.8 °F -3.5 °F -14.8 °F 37% 30.07 in 10.0 mi West 5.8 mph - N/A   Clear
3:15 AM 6.8 °F -3.5 °F -14.8 °F 37% 30.08 in 10.0 mi WNW 5.8 mph - N/A   Clear
3:35 AM 6.8 °F -3.5 °F -14.8 °F 37% 30.09 in 10.0 mi West 5.8 mph - N/A   Clear
3:55 AM 6.8 °F -3.5 °F -14.8 °F 37% 30.10 in 10.0 mi West 5.8 mph - N/A   Clear
4:15 AM 6.8 °F -4.8 °F -14.8 °F 37% 30.11 in 10.0 mi WNW 6.9 mph - N/A   Clear
4:35 AM 5.0 °F -4.1 °F -14.8 °F 40% 30.13 in 10.0 mi WNW 4.6 mph - N/A   Clear
4:55 AM 5.0 °F -2.1 °F -14.8 °F 40% 30.14 in 10.0 mi WNW 3.5 mph - N/A   Clear
5:15 AM 3.2 °F - -14.8 °F 43% 30.16 in 10.0 mi Calm Calm - N/A   Clear
5:35 AM 3.2 °F -6.2 °F -14.8 °F 43% 30.17 in 10.0 mi WNW 4.6 mph - N/A   Clear
5:45 AM 3.2 °F -7.8 °F -14.8 °F 43% 30.17 in 10.0 mi NW 5.8 mph - N/A   Clear
6:47 AM 3.2 °F -4.2 °F -14.8 °F 43% 30.21 in 10.0 mi NW 3.5 mph - N/A   Clear
7:45 AM 5.0 °F -6.9 °F -13.0 °F 43% 30.24 in 10.0 mi NW 6.9 mph - N/A   Clear
8:45 AM 8.6 °F -4.7 °F -11.2 °F 40% 30.28 in 10.0 mi NW 9.2 mph - N/A   Clear
9:50 AM 10.4 °F -3.3 °F -9.4 °F 41% 30.31 in 10.0 mi NW 10.4 mph 18.4 mph N/A   Clear
10:45 AM 12.2 °F -0.2 °F -7.6 °F 41% 30.33 in 10.0 mi NW 9.2 mph 17.3 mph N/A   Clear
11:52 AM 14.0 °F 3.9 °F -7.6 °F 38% 30.33 in 10.0 mi NW 6.9 mph - N/A   Clear
12:52 PM 15.8 °F 3.4 °F -9.4 °F 32% 30.31 in 10.0 mi North 10.4 mph - N/A   Clear
1:52 PM 17.6 °F 4.3 °F -7.6 °F 32% 30.31 in 10.0 mi North 12.7 mph 17.3 mph N/A   Clear
2:52 PM 17.6 °F 6.4 °F -5.8 °F 35% 30.34 in 10.0 mi NW 9.2 mph - N/A   Clear
3:50 PM 17.6 °F 8.2 °F -7.6 °F 32% 30.34 in 10.0 mi North 6.9 mph - N/A   Clear
4:50 PM 17.6 °F 6.4 °F -5.8 °F 35% 30.34 in 10.0 mi North 9.2 mph - N/A   Clear
5:52 PM 17.6 °F - -7.6 °F 32% 30.34 in 10.0 mi Calm Calm - N/A   Clear
6:50 PM 15.8 °F - -7.6 °F 35% 30.35 in 10.0 mi Calm Calm - N/A   Clear